Salt Lake City, UT

1:08 AM MDT on July 25, 2017 (GMT -0600)
Salt Lake City International

Weather History for KSLC - November, 2011

Change the Weather History Date:

Friday, November 25, 2011

  Actual Average Record
Temperature  
Mean Temperature 40 °F 36 °F  
Max Temperature 52 °F 44 °F 69 °F (1960)
Min Temperature 28 °F 27 °F 1 °F (1931)
Degree Days  
Heating Degree Days 25 29  
Month to date heating degree days 618 597  
Since 1 July heating degree days 959 1065  
Cooling Degree Days 0 0  
Month to date cooling degree days 0 0  
Year to date cooling degree days 1162 1160  
Moisture  
Dew Point 25 °F    
Average Humidity 54    
Maximum Humidity 70    
Minimum Humidity 38    
Precipitation  
Precipitation T in 0.04 in 0.90 in (2001)
Month to date precipitation 1.60 1.22  
Year to date precipitation 19.09 14.46  
Snow  
Snow 0.00 in 0.30 in 10.40 in (2001)
Month to date snowfall 5.5 5.7  
Since 1 July snowfall 5.5 7.1  
Snow Depth 0.00 in    
Sea Level Pressure  
Sea Level Pressure 30.15 in    
Wind  
Wind Speed 9 mph (North)    
Max Wind Speed 36 mph    
Max Gust Speed 43 mph    
Visibility 10 miles    
Events Rain    
T = Trace of Precipitation, MM = Missing Value Source: NWS Daily Summary

Daily Weather History Graph

Daily Weather History Graph

Search for Another Location

Airport or City:

Trip Planner

Search our weather history database for the weather conditions in past years. The results will help you decide how hot, cold, wet, or windy it might be!

Date:

Astronomy

Nov. 25, 2011 Rise Set
Actual Time 7:26 AM MST 5:03 PM MST
Civil Twilight 6:56 AM MST 5:33 PM MST
Nautical Twilight 6:22 AM MST 6:07 PM MST
Astronomical Twilight 5:49 AM MST 6:39 PM MST
Moon 7:58 AM MST 5:34 PM MST
Length of Visible Light 10h 37m
Length of Day
9h 37m
New Moon, 0% of the Moon is Illuminated
Nov 25
New Moon
Dec 2
First Quarter
Dec 10
Full
Dec 17
Last Quarter
Dec 24
New

Hourly Weather History & Observations

Time (MST) Temp. Windchill Dew Point Humidity Pressure Visibility Wind Dir Wind Speed Gust Speed Precip Events Conditions
12:53 AM 42.8 °F - 28.4 °F 57% 29.98 in 10.0 mi Calm Calm - N/A   Mostly Cloudy
1:53 AM 39.2 °F 37.0 °F 30.2 °F 70% 29.99 in 10.0 mi SE 3.5 mph - N/A   Mostly Cloudy
2:53 AM 41.0 °F 37.1 °F 28.0 °F 60% 29.94 in 10.0 mi SSE 5.8 mph - N/A   Mostly Cloudy
3:53 AM 37.9 °F 32.7 °F 28.0 °F 68% 29.95 in 10.0 mi SE 6.9 mph - N/A   Mostly Cloudy
4:53 AM 37.9 °F 33.5 °F 28.0 °F 68% 29.97 in 10.0 mi ESE 5.8 mph - N/A   Mostly Cloudy
5:53 AM 39.0 °F 34.8 °F 28.9 °F 67% 30.00 in 10.0 mi SE 5.8 mph - N/A   Mostly Cloudy
6:53 AM 41.0 °F 34.3 °F 30.0 °F 65% 30.01 in 10.0 mi SE 11.5 mph - 0.00 in Rain Light Rain
7:53 AM 42.1 °F 39.2 °F 30.0 °F 62% 30.02 in 10.0 mi South 4.6 mph - 0.00 in   Mostly Cloudy
8:53 AM 43.0 °F - 30.0 °F 60% 30.05 in 10.0 mi Calm Calm - N/A   Mostly Cloudy
9:53 AM 43.0 °F 38.8 °F 30.9 °F 62% 30.07 in 10.0 mi SE 6.9 mph - 0.00 in Rain Light Rain
10:53 AM 45.0 °F 42.6 °F 32.0 °F 60% 30.10 in 10.0 mi ESE 4.6 mph - 0.00 in   Mostly Cloudy
11:43 AM 51.8 °F - 26.6 °F 38% 30.11 in 10.0 mi NW 15.0 mph 20.7 mph N/A   Scattered Clouds
11:53 AM 51.1 °F - 26.1 °F 38% 30.07 in 10.0 mi NW 13.8 mph 20.7 mph N/A   Scattered Clouds
12:53 PM 50.0 °F - 27.0 °F 41% 30.07 in 10.0 mi NW 9.2 mph - N/A   Mostly Cloudy
1:53 PM 51.8 °F - 28.4 °F 41% 30.11 in 10.0 mi WNW 18.4 mph 25.3 mph N/A   Mostly Cloudy
2:53 PM 46.9 °F - 27.0 °F 46% 30.12 in 10.0 mi NNW 31.1 mph 41.4 mph N/A   Mostly Cloudy
3:53 PM 45.0 °F 36.4 °F 27.0 °F 49% 30.19 in 10.0 mi North 23.0 mph 38.0 mph N/A   Mostly Cloudy
4:53 PM 42.1 °F 32.8 °F 21.0 °F 43% 30.25 in 10.0 mi North 21.9 mph 27.6 mph N/A   Mostly Cloudy
5:53 PM 39.0 °F 34.8 °F 19.9 °F 46% 30.30 in 10.0 mi North 5.8 mph - N/A   Mostly Cloudy
6:53 PM 35.1 °F 27.9 °F 17.1 °F 48% 30.36 in 10.0 mi North 9.2 mph - N/A   Scattered Clouds
7:53 PM 35.1 °F 27.9 °F 12.9 °F 40% 30.39 in 10.0 mi NNW 9.2 mph - N/A   Partly Cloudy
8:53 PM 35.1 °F 26.9 °F 12.0 °F 39% 30.40 in 10.0 mi NNW 11.5 mph - N/A   Partly Cloudy
9:53 PM 33.1 °F 26.1 °F 16.0 °F 50% 30.45 in 10.0 mi North 8.1 mph - N/A   Clear
10:53 PM 28.4 °F 21.2 °F 15.8 °F 59% 30.46 in 10.0 mi NNW 6.9 mph - N/A   Clear
11:53 PM 30.0 °F 26.5 °F 15.1 °F 54% 30.49 in 10.0 mi West 3.5 mph - N/A   Clear